Theta_e
313 312 312 311 311 312 311 311 309 308 308 308 308 306 306 304 302 305 308 306 306 307 307 307 307 307 307 307 307 308 308 311 312 310 310 309 309 308 309 308 309 309 309
313 312 312 311 311 312 309 308 308 308 309 309 309 308 305 304 301 302 306 307 305 306 306 306 307 307 306 307 307 307 308 309 312 310 310 308 307 308 308 308 307 307 307
312 313 312 311 311 311 310 308 309 309 310 310 309 308 306 304 301 302 305 306 307 307 307 307 307 307 306 307 307 307 308 309 311 310 309 307 306 307 306 306 306 306 306
313 312 311 311 310 310 310 310 309 310 309 309 309 308 305 302 302 305 306 306 307 307 307 306 307 307 307 306 307 307 308 311 310 309 307 307 306 305 305 305 305 305 304
312 312 311 311 311 310 310 310 310 311 309 308 308 309 305 301 301 302 306 306 307 307 306 306 307 307 307 307 307 307 308 309 309 308 307 307 306 306 305 305 306 306 305
311 311 311 311 310 310 310 310 312 311 311 309 309 308 307 303 301 301 307 307 307 306 305 305 306 303 306 307 305 307 307 308 308 308 308 308 307 306 305 306 306 306 306
312 313 312 311 310 310 310 312 312 311 311 309 309 309 308 305 303 301 305 307 307 306 304 303 304 303 305 307 306 305 306 307 307 307 307 307 307 306 306 305 306 307 306
312 312 312 311 311 310 310 312 311 312 311 311 310 310 307 305 303 302 304 306 305 307 305 304 302 302 304 306 307 306 306 305 306 306 307 307 307 306 305 306 308 309 306
312 311 311 311 311 311 313 313 312 312 311 311 310 309 307 307 304 303 303 305 304 306 306 305 303 301 303 304 305 306 305 306 306 306 306 307 307 307 307 308 309 308 307
312 311 311 311 311 310 313 312 312 311 310 309 308 308 307 305 304 303 303 303 303 305 307 306 305 303 302 303 303 302 303 305 306 307 307 308 308 306 306 308 309 309 309
312 311 311 311 311 311 310 311 310 311 310 309 309 307 305 304 304 303 303 303 302 304 305 304 303 304 304 303 302 303 305 306 306 307 306 307 308 308 308 308 309 309 309
311 311 311 311 311 311 309 310 309 309 310 308 306 306 305 304 303 302 302 302 302 304 302 303 304 304 304 304 304 305 306 306 306 307 306 306 306 305 306 307 307 307 308
311 310 311 311 310 310 311 311 309 308 308 307 307 306 305 303 302 300 300 300 301 302 302 304 305 305 305 303 304 304 305 306 306 306 306 305 304 304 305 305 306 305 304
311 311 311 311 310 310 309 309 309 308 308 306 306 305 304 304 302 300 300 299 300 301 303 304 303 304 304 302 303 304 304 304 304 305 305 306 306 305 305 305 306 306 306
311 311 310 311 310 309 309 308 309 309 308 306 305 305 304 304 301 300 300 300 301 302 302 303 303 303 303 303 302 303 302 303 304 304 304 305 305 306 306 306 306 306 306
311 311 311 310 309 310 310 309 308 308 307 307 306 305 303 303 301 300 300 301 301 301 302 302 302 302 302 303 303 302 303 302 302 304 304 304 305 305 304 306 306 305 306
311 312 312 311 310 309 309 307 307 308 307 307 306 305 303 302 302 301 300 301 301 302 301 301 301 301 301 302 302 303 301 302 303 302 303 304 304 303 304 304 306 306 305
311 310 307 309 309 309 308 308 308 308 308 308 307 306 304 302 302 301 301 301 302 302 301 301 302 302 301 301 301 302 302 301 302 303 302 303 303 304 305 305 304 305 306
311 311 309 310 309 308 308 308 308 308 308 308 307 306 304 304 303 302 302 302 302 301 301 301 301 301 301 301 300 299 300 301 301 301 303 303 303 303 303 304 305 306 306
312 311 308 309 310 309 308 309 307 308 307 308 307 306 303 304 302 302 302 302 301 301 300 299 300 300 300 300 300 298 298 299 299 300 302 302 302 303 302 302 303 304 306
312 311 310 310 309 310 309 309 308 307 307 307 304 303 303 302 302 302 301 300 299 299 299 299 299 298 299 299 299 299 298 297 297 298 298 299 300 300 301 301 301 304 307
311 312 311 310 310 310 310 309 308 308 308 307 303 302 302 301 301 300 300 299 298 298 298 298 297 298 299 298 299 299 297 296 296 296 296 296 297 299 299 299 299 301 303
312 311 310 310 310 310 309 309 309 309 308 306 304 302 301 300 300 300 299 299 298 298 298 298 298 298 298 298 298 297 295 293 291 291 294 295 295 296 296 297 297 298 301
309 310 311 311 310 310 309 309 308 307 305 303 302 301 301 300 300 299 299 298 297 297 297 297 297 298 297 297 295 293 293 291 289 290 293 293 294 294 295 297 298 298 299
307 307 310 311 310 310 309 308 306 304 303 302 301 301 300 300 299 299 298 298 297 298 297 297 298 296 296 295 294 293 293 290 289 289 292 292 293 294 295 297 297 298 299
310 310 310 310 308 307 306 305 305 304 303 302 301 300 300 299 299 298 297 297 297 297 297 297 296 295 294 293 293 292 291 289 289 289 289 291 292 295 296 297 298 298 298
Wind_Speed
10 8 5 3 6 6 8 10 11 13 13 14 14 15 16 21 22 19 19 20 19 20 19 17 16 15 16 15 14 11 11 8 2 1 5 10 13 14 17 19 20 22 22
12 7 5 3 4 6 6 9 10 12 13 15 14 14 15 20 23 21 18 18 19 19 20 16 15 14 18 17 14 13 12 7 3 3 4 7 13 14 15 18 19 20 22
10 7 5 3 3 4 5 6 8 10 11 12 14 13 14 20 23 22 17 15 17 19 15 13 13 14 19 20 17 15 12 6 4 7 6 8 10 13 14 15 17 18 18
11 7 5 2 2 2 2 5 7 7 11 12 13 10 12 19 22 21 20 16 20 17 15 13 10 11 15 19 19 16 13 3 7 13 12 9 7 7 11 12 14 15 16
10 8 7 5 2 2 3 5 6 6 11 11 10 8 11 20 20 21 18 18 17 15 16 13 12 11 12 14 15 16 12 11 12 13 9 6 6 2 4 7 11 10 12
11 10 8 7 6 3 3 5 5 7 9 11 9 9 9 16 19 20 15 15 15 13 14 14 11 15 13 12 14 11 12 9 12 11 8 4 3 6 8 6 6 2 3
11 10 8 8 8 5 4 4 4 8 9 11 8 7 5 11 17 20 15 14 13 11 14 13 12 15 14 14 8 12 11 8 5 5 5 4 5 5 6 5 1 3 2
12 8 9 11 7 5 4 3 8 10 11 10 8 3 4 8 16 18 14 12 16 10 14 13 12 13 15 14 10 8 9 12 8 3 2 4 3 6 5 2 5 2 5
14 9 7 11 5 3 4 4 7 10 10 10 7 4 3 5 13 17 16 12 18 13 10 13 14 11 12 14 12 11 9 12 6 6 3 1 2 1 1 3 6 3 5
17 11 7 5 2 3 4 7 8 8 10 8 7 3 1 5 11 13 15 15 16 14 10 12 14 11 9 11 12 11 10 12 11 5 2 2 1 2 1 3 4 4 5
16 12 7 4 1 5 5 7 9 8 9 7 4 3 3 6 7 9 12 13 15 12 13 13 14 13 12 10 8 10 12 12 8 4 4 5 7 6 4 1 3 4 2
15 10 5 2 1 4 6 6 7 8 6 5 4 5 1 6 9 11 12 14 15 8 16 14 10 11 14 14 10 9 9 10 7 4 4 4 3 3 4 3 3 1 3
8 6 3 3 4 4 5 5 6 7 9 11 6 7 9 5 11 13 12 12 12 12 14 13 9 6 9 15 13 7 8 9 10 9 5 3 2 1 0 1 2 4 3
6 5 2 3 5 4 4 5 4 4 3 6 7 9 10 7 14 13 14 14 13 13 13 12 10 8 5 9 15 12 10 8 8 7 7 5 4 3 1 1 2 3 2
6 3 5 5 6 6 6 6 7 4 4 5 3 3 6 8 10 10 12 14 15 12 11 9 11 10 8 6 10 14 13 10 9 8 7 7 6 5 3 2 2 3 2
6 6 7 7 8 9 8 7 5 9 9 7 5 2 3 5 8 9 10 14 13 13 14 10 11 11 11 10 9 9 12 13 9 7 8 5 6 4 4 5 4 3 4
7 5 5 7 10 6 1 3 4 5 9 10 9 5 2 2 4 6 12 10 9 10 11 11 11 12 12 12 11 6 9 13 9 8 7 6 5 4 4 6 7 6 4
6 2 2 5 2 8 2 5 8 11 12 8 12 9 6 3 2 4 8 11 11 10 10 12 14 13 13 11 12 12 9 11 12 8 8 6 5 4 5 6 6 7 9
6 2 2 4 3 1 5 7 8 12 7 2 6 9 6 7 5 5 7 8 10 11 12 12 14 12 13 8 9 11 10 11 11 12 9 10 6 5 7 8 8 9 10
7 4 1 1 3 3 5 9 6 9 10 4 6 4 4 7 3 4 7 8 11 11 12 14 13 12 10 9 7 11 12 11 10 11 7 7 8 7 9 12 10 10 12
8 6 6 6 7 8 7 9 9 9 10 5 11 9 8 8 7 8 8 7 10 12 13 13 11 12 11 11 7 7 11 12 9 8 8 9 10 11 12 13 12 11 11
7 8 8 7 7 9 10 10 9 8 11 4 11 11 10 9 7 6 8 9 11 11 12 14 13 11 10 12 4 4 8 10 12 13 12 11 11 9 12 14 14 11 9
8 8 9 9 10 12 12 11 12 9 11 12 10 11 9 9 8 9 8 8 12 12 14 12 13 13 12 4 2 4 7 12 16 15 13 12 12 11 11 12 15 13 10
9 13 14 13 13 9 7 6 9 6 18 18 16 12 10 8 7 8 8 11 13 14 13 14 13 8 5 1 3 9 15 18 16 13 11 12 12 11 11 12 15 13 12
7 13 16 16 10 5 5 3 16 19 16 14 12 9 7 7 7 8 10 13 13 16 14 12 11 5 5 4 10 16 20 20 17 13 11 11 11 10 9 11 15 13 13
14 8 13 7 8 8 9 9 10 9 10 11 9 8 5 5 9 10 11 13 12 12 12 11 9 6 6 11 16 20 22 20 15 12 11 10 10 6 7 13 17 14 13
Wind_Direction
135 130 122 72 46 42 35 31 18 19 21 18 24 24 21 9 6 3 7 4 2 6 7 1 2 4 1 355 353 345 331 316 244 82 80 79 74 75 73 71 69 65 60
141 141 133 92 63 52 43 29 25 21 13 14 12 20 13 5 5 8 5 3 6 2 359 357 2 10 9 6 360 349 330 301 287 137 100 100 94 88 88 86 81 75 72
143 149 134 122 76 73 26 32 13 360 3 0 9 12 16 359 1 2 9 5 356 357 0 0 360 10 16 13 7 359 343 298 237 159 123 110 96 101 95 91 86 78 70
145 153 144 134 103 61 0 19 9 360 357 3 11 18 21 4 8 10 9 10 10 11 15 14 11 14 10 13 13 10 14 113 146 139 126 123 104 97 98 91 84 79 76
154 167 178 179 192 259 311 345 344 350 2 11 13 8 22 17 13 6 9 12 7 15 27 24 24 12 6 14 15 22 39 84 110 115 115 119 127 127 102 107 101 91 79
173 192 194 192 214 243 333 323 323 351 360 9 15 360 5 11 13 12 9 14 17 23 21 29 23 15 16 14 17 30 44 75 99 104 111 117 129 131 141 140 122 65 101
180 199 210 213 219 242 321 322 340 355 347 353 5 349 344 4 12 16 14 16 21 21 26 27 22 15 18 22 25 27 37 52 72 119 142 133 138 146 153 153 2 4 121
192 204 209 200 212 251 311 312 350 345 337 346 354 359 357 10 9 13 17 25 26 22 19 22 22 19 21 22 24 5 22 33 40 55 91 120 132 154 157 288 317 352 152
194 186 206 194 230 278 297 330 343 339 346 347 360 354 353 356 10 13 17 24 16 29 26 12 16 21 21 20 35 50 48 36 18 34 57 76 105 152 235 312 313 219 216
198 184 167 164 209 335 354 335 343 339 350 2 26 70 100 26 26 23 23 17 11 23 34 13 5 16 19 24 17 18 17 6 10 12 341 36 265 230 230 323 311 248 229
170 168 157 151 299 310 350 351 351 346 356 9 15 167 82 32 23 29 16 16 10 18 24 14 13 15 18 11 7 16 0 351 4 19 92 83 79 124 93 91 63 48 188
148 146 153 153 310 305 333 346 358 16 3 355 73 140 104 48 43 25 23 19 15 30 5 0 357 8 17 8 16 27 31 32 47 51 76 77 88 55 49 43 40 26 64
148 144 139 295 282 299 325 327 338 6 13 24 57 49 52 60 20 14 12 11 11 358 359 7 5 359 16 21 21 24 37 41 39 44 34 14 50 3 291 338 41 50 58
149 148 235 250 279 286 297 276 301 318 341 30 33 15 16 5 0 5 3 3 3 7 20 35 33 30 34 23 31 29 30 33 31 23 19 351 351 7 19 193 312 286 263
155 198 255 259 274 276 271 278 277 292 293 310 346 8 343 337 353 360 3 5 4 4 9 19 28 33 20 4 23 37 25 18 23 16 9 13 13 19 48 350 340 0 305
189 229 248 258 270 275 279 278 278 265 270 276 270 273 325 342 357 5 14 8 9 8 11 14 27 16 11 10 358 10 26 15 6 4 3 359 9 7 15 20 12 351 4
191 230 264 317 300 199 129 37 320 283 258 253 252 248 271 346 6 10 19 22 17 12 29 12 358 356 352 7 4 345 9 7 350 3 341 344 343 321 325 332 345 339 334
190 215 289 295 38 116 23 325 325 336 305 289 242 239 242 242 304 348 354 1 10 13 11 13 12 359 342 357 9 13 348 7 4 345 355 349 339 326 323 322 319 312 313
181 149 308 345 219 343 325 328 326 344 312 312 213 214 248 250 270 315 336 347 1 9 11 5 2 12 5 348 8 10 5 360 357 353 325 345 338 355 332 321 316 307 306
199 210 212 307 314 302 307 300 331 339 346 349 209 142 86 160 152 60 21 10 12 7 8 5 357 354 0 345 342 2 2 4 12 1 359 11 1 330 343 338 320 316 310
199 220 250 275 288 289 292 291 308 308 332 19 133 113 102 89 70 74 52 22 6 2 1 357 350 348 353 341 322 329 352 349 353 355 7 2 355 350 333 331 328 338 325
210 236 250 260 279 286 287 296 282 317 324 274 144 118 92 82 73 42 35 10 6 357 351 346 341 348 344 340 324 319 331 349 346 334 323 331 334 334 317 318 326 320 327
224 239 243 254 270 280 287 279 278 292 326 128 128 115 78 53 42 25 16 4 354 348 347 346 346 350 345 350 311 324 344 341 332 322 309 304 307 310 317 319 325 312 304
251 263 256 256 269 261 273 284 350 59 107 97 92 76 57 47 31 17 14 4 359 354 349 349 351 350 1 84 7 360 345 339 331 319 303 299 297 302 308 312 322 314 298
265 266 255 255 250 265 324 73 95 97 103 105 94 73 52 36 14 7 358 353 350 353 354 349 344 345 2 18 355 351 346 339 332 321 309 301 299 296 298 304 319 312 301
305 225 222 213 89 87 108 101 104 96 104 109 94 74 64 3 355 351 352 348 352 357 1 4 11 12 359 353 351 346 341 335 331 320 313 306 305 291 304 299 319 310 304